Regional Weather Roundup
Issued by NWS

Home | Current Version | Previous Version | Graphics & Text | Print | Product List | Glossary On
Versions: 1 2 3 4 5 6 7 8 9 10 11 12 13 14 15 16 17 18 19 20 21 22 23 24 25 26 27 28 29 30 31 32 33 34 35 36 37 38 39 40 41 42 43 44 45 46 47 48 49 50
294
ASUS45 KBOU 060007
RWRCO

WEATHER ROUNDUP FOR COLORADO
NATIONAL WEATHER SERVICE DENVER/BOULDER CO
500 PM MST MON DEC 05 2016

NOTE: "FAIR" INDICATES FEW OR NO CLOUDS BELOW 12000 FEET WITH NO
SIGNIFICANT WEATHER AND/OR OBSTRUCTIONS TO VISIBILITY.

COZ001>005-013-030-031-060100-
...NORTHWEST COLORADO...

CITY           SKY/WX    TMP DP  RH WIND       PRES   REMARKS
CRAIG          CLOUDY    20  -9  27 W9        29.94R WCI   9
HAYDEN         MOCLDY    18  -8  32 W8        29.91R WCI   7
MEEKER         CLOUDY    21   6  52 N8        29.91R WCI  11
MOUNT WERNER   NOT AVBL
STEAMBOAT SPGS CLOUDY    16  -4  41 SW5       29.88S WCI   9
WALDEN           N/A     10  -6  48 W13       29.81S WCI  -5
$$

COZ006>008-011-060100-
...WEST CENTRAL VALLEYS...

CITY           SKY/WX    TMP DP  RH WIND       PRES   REMARKS
GRAND JUNCTION FAIR      36  14  40 W10       29.85R
MONTROSE       FAIR      39  11  31 NW15      29.85R
EAGLE          MOCLDY    30  12  47 NW9       29.81R WCI  22
RIFLE          CLOUDY    34   8  33 NW22G33   29.85R WCI  22
DELTA          FAIR      44  13  28 W16G28    29.84R
NUCLA          FAIR      39  16  38 NW9       29.89R
$$

COZ017>023-064>068-060100-
...SOUTHWEST COLORADO...

CITY           SKY/WX    TMP DP  RH WIND       PRES   REMARKS
DURANGO        FAIR      40  13  33 W17       29.83R
CORTEZ         FAIR      41  18  39 NW7       29.86R
PAGOSA SPRINGS FAIR      38  14  37 SW7       29.82R
TELLURIDE      FAIR      30   4  33 SW6G17    29.89S WCI  24
WOLF CREEK PAS MOCLDY    18  14  86 S17G25    29.88F WCI   2
$$

COZ009-010-012-014-032>034-037-058>063-060100-
...CENTRAL COLORADO...

CITY           SKY/WX    TMP DP  RH WIND       PRES   REMARKS
ASPEN          MOCLDY    26  17  68 N9G18     29.78R WCI  17
BUENA VISTA    NOT AVBL
COPPER MTN     CLOUDY    16  10  79 MISG      29.68S
BERTHOUD PASS  LGT SNOW  -2 -13  60 MISG      29.61R VSB 3/4
COTTONWOOD PAS FLURRIES  28   9  43 S9G25     29.74R WCI  20
GUNNISON       FAIR      32  13  45 W13G24    29.80R WCI  22
KREMMLING      MOCLDY    21   3  45 N16G24    29.84R WCI   7
LEADVILLE      CLOUDY    20   5  52 N8        29.70S WCI  10
MONARCH PASS   CLOUDY    16   9  73 W48G55    29.83R WCI  -8
SALIDA         FAIR      38  10  30 W15G26    29.83R
SUNLIGHT       HVY SNOW  10   9  92 SW10G24   29.80R VSB 1/4 WCI  -3
WILKERSON PASS CLOUDY    19   5  53 SW13G25   29.74R WCI   7
$$

COZ069>075-060100-
...SAN LUIS VALLEY/SANGRE DE CRISTO MOUNTAINS...

CITY           SKY/WX    TMP DP  RH WIND       PRES   REMARKS
ALAMOSA        FAIR      33  17  51 W8        29.76R WCI  26
LA VETA PASS   CLOUDY    28  12  50 NE7       29.80R WCI  21
SAGUACHE       FAIR      32  10  40 NW10      29.78R WCI  24
$$

COZ035-036-038>040-060100-
...NORTHERN COLORADO FRONT RANGE...

CITY           SKY/WX    TMP DP  RH WIND       PRES   REMARKS
DENVER INTL AP FAIR      27   4  37 N28G36    29.71R WCI  11
DMNS CITY PARK   N/A     31   6  35 E18G25    29.70R WCI  19
AURORA         PTCLDY    26   5  40 NE14      29.73R WCI  15
FRONT RANGE AP PTCLDY    28   5  37 N17G24    29.75R WCI  16
ERIE MUNI ARPT FAIR      35   6  30 W29G40    29.68R WCI  22
BOULDER MUN AP MOCLDY    34   7  32 W30G38    29.69R WCI  20
CENTENNIAL     FAIR      30   8  39 E15G28    29.71R WCI  19
BROOMFIELD     PTCLDY    32  10  40 W32G40    29.66R WCI  17
FORT COLLINS   FAIR      27   1  33 NW39G53   29.75R WCI   8
LONGMONT       FAIR      38   9  29 W14G25    29.73R
$$

COZ041-046-047-076>085-087-088-060100-
...PIKES PEAK/PALMER DIVIDE AND SOUTHERN FOOTHILLS...

CITY           SKY/WX    TMP DP  RH WIND       PRES   REMARKS
COLO. SPRINGS  FAIR      47  -6  11 W29G37    29.70R
A. F. ACADEMY  FAIR      42  -1  17 W14G20    29.69R
SCHRIEVER AFB  NOT AVBL
ELLICOTT       FAIR     N/A N/A N/A NW8       29.69R
FALCON         FAIR      36   1  23 W8        29.72R
FORT CARSON    FAIR      46   2  16 SW12      29.68R
LIMON          FAIR      29   4  34 N21G33    29.75R WCI  16
MONUMENT HILL  FAIR      30   5  34 E13       29.74R WCI  20
TRINIDAD       FAIR      48   5  17 W10       29.66R
$$

COZ042>045-048>051-090-091-060100-
...NORTHEAST COLORADO...

CITY           SKY/WX    TMP DP  RH WIND       PRES   REMARKS
GREELEY ARPT   NOT AVBL
AKRON          FAIR      26  10  50 N20       29.79R WCI  12
BURLINGTON     FAIR      38  -6  15 N21G32    29.75R
WRAY           MOCLDY    32  16  51 N16G35    29.81  WCI  21
STERLING       MOCLDY    30  16  55 N17G24    29.81R WCI  18
HOLYOKE        FAIR      34  18  51 N18G24    29.83R WCI  23
FORT MORGAN    FAIR      30 -14  14 N12G30    29.80R WCI  20
$$

COZ086-089-092>099-060100-
...SOUTHEAST COLORADO...

CITY           SKY/WX    TMP DP  RH WIND       PRES   REMARKS
PUEBLO         FAIR      52   1  12 NW25G33   29.64R
LA JUNTA       FAIR      55   3  12 NW21      29.64R
LAMAR          FAIR      51  18  27 E10       29.62R
SPRINGFIELD      N/A     53   9  17 NW18      29.60R
$$




USA.gov is the U.S. government's official web portal to all federal, state and local government web resources and services.